Phenix City, Alabama, United States (36867)
Lat: 32.47N, Lon: 85W
Wx Zone: ALZ048
Local Info
Past Weather Observations for Yesterday

NOTE: This archive is for the closest National Weather Service station to Phenix City. Information may differ from the station used for current weather conditions.

Time Weather Temperature Dewpoint Humidity Pressure Winds Precip Visibility
23:51
Clear
57°F / 14°C 48°F / 9°C 72% 29.95 in
(1014 mb)
Calm - 10SM
22:51
Clear
63°F / 17°C 46°F / 8°C 56% 29.95 in
(1014 mb)
Calm - 10SM
21:51
Clear
64°F / 18°C 46°F / 8°C 52% 29.95 in
(1014 mb)
Calm - 10SM
20:51
Clear
68°F / 20°C 48°F / 9°C 49% 29.92 in
(1013 mb)
Calm - 10SM
19:51
Clear
73°F / 23°C 45°F / 7°C 36% 29.92 in
(1013 mb)
Calm - 10SM
18:51
Clear
81°F / 27°C 39°F / 4°C 23% 29.89 in
(1012 mb)
N 4.6 mph
(N 7 kph)
- 10SM
17:51
Clear
82°F / 28°C 37°F / 3°C 20% 29.89 in
(1012 mb)
Variable 3.5 mph
(Variable 6 kph)
- 10SM
16:51
Clear
82°F / 28°C 37°F / 3°C 20% 29.89 in
(1012 mb)
NE 6.9 mph
(NE 11 kph)
- 10SM
15:51
Clear
82°F / 28°C 37°F / 3°C 20% 29.89 in
(1012 mb)
NW 9.2 mph
(NW 15 kph)
- 10SM
14:51
Clear
82°F / 28°C 43°F / 6°C 25% 29.92 in
(1013 mb)
N 10.4 mph
(N 17 kph)
- 10SM
13:51
Clear
81°F / 27°C 50°F / 10°C 34% 29.92 in
(1013 mb)
NW 9.2 mph
(NW 15 kph)
- 10SM
12:51
Clear
79°F / 26°C 48°F / 9°C 34% 29.95 in
(1014 mb)
NNW 13.8 mph
(NNW 22 kph)
- 10SM
11:51
Clear
79°F / 26°C 52°F / 11°C 39% 29.95 in
(1014 mb)
N 9.2 mph
(N 15 kph)
- 10SM
10:51
Clear
73°F / 23°C 55°F / 13°C 53% 29.98 in
(1015 mb)
NW 8.1 mph
(NW 13 kph)
- 10SM
09:51
Clear
70°F / 21°C 54°F / 12°C 57% 29.98 in
(1015 mb)
ENE 4.6 mph
(ENE 7 kph)
- 10SM
08:51
Clear
66°F / 19°C 54°F / 12°C 64% 29.98 in
(1015 mb)
NE 5.8 mph
(NE 9 kph)
- 10SM
07:51
Clear
63°F / 17°C 57°F / 14°C 83% 29.95 in
(1014 mb)
NNE 3.5 mph
(NNE 6 kph)
- 7SM
07:30
Partly Cloudy
Fog And Mist
63°F / 17°C 57°F / 14°C 83% 29.95 in
(1014 mb)
Calm - 5SM
07:03
Overcast
Fog And Mist
59°F / 15°C 57°F / 14°C 94% 29.95 in
(1014 mb)
NNE 3.5 mph
(NNE 6 kph)
- 4SM
06:51
Overcast
Fog And Mist
59°F / 15°C 57°F / 14°C 94% 29.95 in
(1014 mb)
N 3.5 mph
(N 6 kph)
- 2SM
06:36
Overcast
Fog And Mist
59°F / 15°C 57°F / 14°C 94% 29.95 in
(1014 mb)
N 5.8 mph
(N 9 kph)
- 1 1/4SM
06:14
Overcast
Fog
59°F / 15°C 57°F / 14°C 94% 29.92 in
(1013 mb)
N 4.6 mph
(N 7 kph)
- 1/2SM
06:03
Mostly Cloudy
Fog And Mist
59°F / 15°C 57°F / 14°C 94% 29.92 in
(1013 mb)
NNW 3.5 mph
(NNW 6 kph)
- 1 3/4SM
05:59
Mostly Cloudy
Fog And Mist
59°F / 15°C 57°F / 14°C 94% 29.92 in
(1013 mb)
NNW 3.5 mph
(NNW 6 kph)
- 4SM
05:51
Mostly Cloudy
Fog And Mist
57°F / 14°C 55°F / 13°C 94% 29.92 in
(1013 mb)
Calm - 4SM
05:47
Partly Cloudy
Fog And Mist
55°F / 13°C 54°F / 12°C 94% 29.92 in
(1013 mb)
Calm - 5SM
04:51
Clear
Fog And Mist
57°F / 14°C 57°F / 14°C 100% 29.89 in
(1012 mb)
Calm - 4SM
03:51
Clear
Fog And Mist
57°F / 14°C 57°F / 14°C 100% 29.89 in
(1012 mb)
Calm - 4SM
02:51
Clear
Fog And Mist
59°F / 15°C 57°F / 14°C 94% 29.86 in
(1011 mb)
Calm - 4SM
01:51
Clear
Fog And Mist
61°F / 16°C 57°F / 14°C 88% 29.89 in
(1012 mb)
Calm - 5SM
00:51
Clear
Fog And Mist
61°F / 16°C 57°F / 14°C 88% 29.89 in
(1012 mb)
Calm - 6SM
Time Weather Temperature Dewpoint Humidity Pressure Winds Precip Visibility


Weather for websites

WeatherForYou.com, LLC is not responsible for any damages or problems caused by this service. Current weather conditions are obtained from the closest station including government and personal stations which may have varying degrees of accuracy. Weather forecasts are derived from the NOAA NDFD. Like all things, this site belongs to Jesus Christ... He just trusts me to maintain it. If you have any questions or comments email webmaster@weatherforyou.com

Copyright © 2014, WeatherForYou.com LLC. All rights reserved.